STARLINK-36142

Last updated on Fri Dec 19 2025 00:02:09 GMT+0000 (Coordinated Universal Time)

1 66981U 25288Y 25352.58336806 -.01526842 00000+0 -66746-2 0 9991 2 66981 43.0018 131.2991 0001428 269.0535 344.6954 15.86359187 2773
UTC large
Height (km)
Speed (km/s)
/
Latitude / Longitude
Inclination (degrees)
Orbital Period (minutes)
Azimuth
Elevation
Range (km)
Doppler Factor

Next 0 passes for location: London (51.5072 / 0.1276)

Sorry there are no passes over London.